Change the Weather History Date:

Sunday, March 16, 2014

  Actual Average Record
Temperature  
Mean Temperature 54 °F -  
Max Temperature 66 °F 63 °F 69 °F (2001)
Min Temperature 42 °F 46 °F 39 °F (2009)
Degree Days  
Heating Degree Days 11    
Growing Degree Days 4 (Base 50)    
Moisture  
Dew Point 45 °F    
Average Humidity 70    
Maximum Humidity 93    
Minimum Humidity 48    
Precipitation  
Precipitation 0.00 in - - ()
Sea Level Pressure  
Sea Level Pressure 29.85 in    
Wind  
Wind Speed 4 mph ()    
Max Wind Speed 12 mph    
Max Gust Speed -    
Visibility 6.2 miles    
Events      
Averages and records for this station are not official NWS values.
T = Trace of Precipitation, MM = Missing Value Source: Averaged Metar Reports

Daily Weather History Graph

Daily Weather History Graph

Search for Another Location

Airport or City:

Trip Planner

Search our weather history database for the weather conditions in past years. The results will help you decide how hot, cold, wet, or windy it might be!

Date:

Astronomy

Mar. 16, 2014 Rise Set
Actual Time 6:35 AM EET 6:33 PM EET
Civil Twilight 6:09 AM EET 6:59 PM EET
Nautical Twilight 5:39 AM EET 7:30 PM EET
Astronomical Twilight 5:08 AM EET 8:01 PM EET
Moon 6:32 PM EET (3/16) 6:09 AM EET (3/16)
Length of Visible Light 12h 50m
Length of Day
11h 57m
Full, 100% of the Moon is Illuminated
Mar 16
Full
Mar 16
Full
Mar 24
Last Quarter
Mar 30
New
Apr 7
First Quarter

Hourly Weather History & Observations

Time (EET) Temp. Windchill Dew Point Humidity Pressure Visibility Wind Dir Wind Speed Gust Speed Precip Events Conditions
12:50 AM 46.4 °F 43.5 °F 42.8 °F 87% 29.92 in - NNW 5.8 mph - N/A   Clear
1:50 AM 46.4 °F 43.5 °F 42.8 °F 87% 29.89 in - NNW 5.8 mph - N/A   Clear
2:50 AM 46.4 °F 44.3 °F 42.8 °F 87% 29.89 in - North 4.6 mph - N/A   Clear
4:50 AM 42.8 °F 39.3 °F 41.0 °F 93% 29.86 in - NNW 5.8 mph - N/A   Clear
5:20 AM 42.8 °F 39.3 °F 41.0 °F 93% 29.86 in - NNW 5.8 mph - N/A   Clear
5:50 AM 42.8 °F 39.3 °F 41.0 °F 93% 29.86 in 6.2 mi NNW 5.8 mph - N/A   Partly Cloudy
6:20 AM 44.6 °F 43.1 °F 41.0 °F 87% 29.86 in 6.2 mi NNW 3.5 mph - N/A   Partly Cloudy
6:50 AM 44.6 °F 42.2 °F 41.0 °F 87% 29.83 in 6.2 mi NNW 4.6 mph - N/A   Partly Cloudy
7:20 AM 44.6 °F - 41.0 °F 87% 29.86 in 6.2 mi Calm Calm - N/A   Partly Cloudy
7:50 AM 46.4 °F - 42.8 °F 87% 29.86 in 6.2 mi Calm Calm - N/A   Partly Cloudy
8:20 AM 50.0 °F - 46.4 °F 87% 29.86 in 6.2 mi Calm Calm - N/A   Partly Cloudy
8:50 AM 55.4 °F - 46.4 °F 72% 29.86 in 6.2 mi Calm Calm - N/A   Partly Cloudy
9:20 AM 57.2 °F - 46.4 °F 67% 29.86 in 6.2 mi Calm Calm - N/A   Partly Cloudy
9:50 AM 59.0 °F - 48.2 °F 67% 29.86 in 6.2 mi Calm Calm - N/A   Partly Cloudy
10:20 AM 60.8 °F - 48.2 °F 63% 29.86 in 6.2 mi Calm Calm - N/A   Partly Cloudy
10:50 AM 62.6 °F - 46.4 °F 55% 29.86 in - Calm Calm - N/A   Clear
11:20 AM 64.4 °F - 46.4 °F 52% 29.86 in - Calm Calm - N/A   Clear
11:50 AM 64.4 °F - 46.4 °F 52% 29.86 in 6.2 mi Variable 3.5 mph - N/A   Partly Cloudy
12:20 PM 66.2 °F - 46.4 °F 49% 29.83 in 6.2 mi South 4.6 mph - N/A   Partly Cloudy
12:50 PM 66.2 °F - 48.2 °F 52% 29.83 in 6.2 mi SSE 5.8 mph - N/A   Partly Cloudy
1:20 PM 64.4 °F - 50.0 °F 59% 29.83 in 6.2 mi South 8.1 mph - N/A   Partly Cloudy
1:50 PM 66.2 °F - 50.0 °F 56% 29.83 in 6.2 mi South 9.2 mph - N/A   Partly Cloudy
2:20 PM 64.4 °F - 50.0 °F 59% 29.83 in 6.2 mi South 10.4 mph - N/A   Partly Cloudy
2:50 PM 64.4 °F - 50.0 °F 59% 29.83 in 6.2 mi SSW 11.5 mph - N/A   Partly Cloudy
3:20 PM 64.4 °F - 50.0 °F 59% 29.83 in 6.2 mi SSW 9.2 mph - N/A   Mostly Cloudy
3:50 PM 64.4 °F - 46.4 °F 52% 29.80 in 6.2 mi SSW 6.9 mph - N/A   Mostly Cloudy
4:20 PM 64.4 °F - 46.4 °F 52% 29.80 in 6.2 mi SSW 6.9 mph - N/A   Partly Cloudy
4:50 PM 62.6 °F - 42.8 °F 48% 29.80 in 6.2 mi SSW 4.6 mph - N/A   Partly Cloudy
5:20 PM 60.8 °F - 42.8 °F 52% 29.80 in 6.2 mi SSW 4.6 mph - N/A   Partly Cloudy
5:50 PM 59.0 °F - 44.6 °F 59% 29.83 in 6.2 mi Calm Calm - N/A   Partly Cloudy
6:20 PM 59.0 °F - 44.6 °F 59% 29.83 in 6.2 mi Calm Calm - N/A   Partly Cloudy
6:50 PM 55.4 °F - 44.6 °F 67% 29.83 in 6.2 mi Calm Calm - N/A   Partly Cloudy
7:20 PM 55.4 °F - 44.6 °F 67% 29.83 in 6.2 mi Calm Calm - N/A   Partly Cloudy
7:50 PM 53.6 °F - 44.6 °F 72% 29.86 in - Calm Calm - N/A   Clear
8:20 PM 51.8 °F - 44.6 °F 76% 29.86 in - Calm Calm - N/A   Clear
8:50 PM 50.0 °F - 44.6 °F 82% 29.86 in - Calm Calm - N/A   Clear
9:50 PM 48.2 °F - 46.4 °F 93% 29.89 in - Calm Calm - N/A   Clear
10:20 PM 48.2 °F - 42.8 °F 82% 29.89 in - NNW 6.9 mph - N/A   Clear
10:50 PM 48.2 °F - 42.8 °F 82% 29.89 in - NNW 5.8 mph - N/A   Clear
11:50 PM 46.4 °F 43.5 °F 41.0 °F 81% 29.89 in - NNW 5.8 mph - N/A   Clear